This is the latest recevied weather packets stored in our database for station/object OH5GWF-1. If no packets are shown the sender has not sent any weather packets the latest 10 day(s).
| Time | Temp. | Humidity | Pressure | Rain* | Wind** | Luminosity | Snow |
|---|---|---|---|---|---|---|---|
| 1777898279 | 10.56° C | 87% | 1001.4 hPa | 0.51 mm | - | - | - |
| 1777897858 | 10.56° C | 87% | 1001.5 hPa | 1.02 mm | - | - | - |
| 1777897435 | 10° C | 87% | 1001.6 hPa | 1.02 mm | - | - | - |
| 1777897014 | 10° C | 87% | 1001.6 hPa | 1.02 mm | - | - | - |
| 1777896593 | 10° C | 87% | 1001.6 hPa | 1.02 mm | - | - | - |
| 1777896171 | 10° C | 87% | 1001.7 hPa | 1.52 mm | - | - | - |
| 1777895749 | 10° C | 87% | 1001.7 hPa | 1.52 mm | - | - | - |
| 1777895337 | 10° C | 87% | 1001.8 hPa | 1.52 mm | - | - | - |
| 1777894915 | 10.56° C | 87% | 1002 hPa | 1.02 mm | - | - | - |
| 1777894494 | 10.56° C | 86% | 1001.9 hPa | 1.02 mm | - | - | - |
| 1777894073 | 10.56° C | 86% | 1001.8 hPa | 1.02 mm | - | - | - |
| 1777893652 | 10.56° C | 85% | 1001.8 hPa | 1.02 mm | - | - | - |
| 1777893230 | 10.56° C | 84% | 1002 hPa | 1.02 mm | - | - | - |
| 1777892819 | 10.56° C | 83% | 1002.1 hPa | 1.02 mm | - | - | - |
| 1777892397 | 11.11° C | 82% | 1002.1 hPa | 0.51 mm | - | - | - |
| 1777891975 | 11.67° C | 81% | 1002.1 hPa | 0.51 mm | - | - | - |
| 1777891553 | 11.67° C | 79% | 1002.2 hPa | 0.51 mm | - | - | - |
| 1777891131 | 12.22° C | 77% | 1002.2 hPa | 0.51 mm | - | - | - |
| 1777890709 | 13.33° C | 72% | 1002.2 hPa | 0 mm | - | - | - |
| 1777890299 | 13.89° C | 70% | 1002.3 hPa | 0 mm | - | - | - |
| 1777889876 | 13.89° C | 68% | 1002.3 hPa | 0 mm | - | - | - |
| 1777889454 | 14.44° C | 67% | 1002.5 hPa | 0 mm | - | - | - |
| 1777889032 | 15° C | 65% | 1002.6 hPa | 0 mm | - | - | - |
| 1777888609 | 15.56° C | 64% | 1002.8 hPa | 0 mm | - | - | - |
| 1777888199 | 15.56° C | 63% | 1002.8 hPa | 0 mm | - | - | - |
* Rain latest hour (hover to see other rain measurements)
** Current wind speed in m/s (hover to see current wind gust speed)